Погода в Хельсингборге

Швеция     56˚02′54″N   12˚41′50″E
темп.,
°C
ветер,
м/с
пор.,
м/с
влажн.,
%
обл.,
%
осадки,
мм/ч
давл.,
гПа
погр.,
м
16 января, сб
сб1601:00−7˚с34859 0.0 1026204
04:00−6˚с46790 0.0 1024243
07:00−5˚с45840 0.0 1024224
10:00−3˚ссз46790 0.0 1022289
13:00−1˚ссз57750 0.0 1021478
16:00−2˚с57750 0.0 1020338
19:00−4˚ссв33720 0.0 1019162
22:00−5˚вюв11760 0.0 101990
17 января, вс
вс1701:00−4˚юв458519 0.0 1018153
04:00−4˚ююв358856 0.0 1017208
07:00−3˚юв348930 0.0 1018195
10:00−3˚вюв34945 0.0 1018159
13:00−1˚ююв348814 0.0 1019293
16:00ююз357872 0.0 1018508
19:00ююз567884 0.0 1019535
22:00ююз587988 0.0 1019595
18 января, пн
пн1801:00ююз687994 0.0 1018550
04:00−1˚ююз688898 0.0 1017449
07:00ююз689599 0.4 1016398
10:00+1˚ююз5793100 0.3 1015298
13:00+2˚ююз699394 0.3 1014432
16:00+2˚ююз6998100 0.8 1012376
19:00+3˚юз51096100 1.5 1011328
22:00+2˚зюз5995100 0.1 1011280
19 января, вт
вт1901:00+2˚зюз5994100 0.1 1011339
04:00+2˚зюз6995100 0.0 1010381
07:00+2˚юз5897100 0.3 1009336
10:00+2˚ююз71092100 0.1 1008442
13:00+3˚ю81290100 0.1 1006640
16:00+1˚ююв111597100 1.7 1002624
19:00+3˚ююв101596100 5.2 998421
22:00+5˚юз71596100 3.9 997379
20 января, ср
ср2001:00+6˚юз81592100 4.8 997402
04:00+5˚ююз81593100 0.8 996431
07:00+5˚ююз91692100 2.1 995485
10:00+5˚ююз91694100 1.3 995463
13:00+5˚ююз91693100 2.7 994459
16:00+6˚ююз81590100 0.7 993383
19:00+6˚ю81492100 1.7 993353
22:00+6˚ю91689100 0.2 992443